Weather History for Ohio State University, OH

Change the Weather History Date:

Saturday, January 18, 2014

  Actual Average Record
Temperature  
Mean Temperature 15 °F -  
Max Temperature 21 °F 31 °F 48 °F (1999)
Min Temperature 9 °F 17 °F -2 °F (2005)
Degree Days  
Heating Degree Days 50    
Moisture  
Dew Point 13 °F    
Average Humidity 80    
Maximum Humidity 88    
Minimum Humidity 65    
Precipitation  
Precipitation 0.02 in - - ()
Sea Level Pressure  
Sea Level Pressure 29.93 in    
Wind  
Wind Speed 10 mph (South)    
Max Wind Speed 15 mph    
Max Gust Speed 20 mph    
Visibility 6 miles    
Events Snow    
Averages and records for this station are not official NWS values.
T = Trace of Precipitation, MM = Missing Value Source: NWS Daily Summary

Daily Weather History Graph

Daily Weather History Graph

Search for Another Location

Airport:

Trip Planner

Search our weather history database for the weather conditions in past years. The results will help you decide how hot, cold, wet, or windy it might be!

Date:

Astronomy

Jan. 18, 2014 Rise Set
Actual Time 7:51 AM EST 5:34 PM EST
Civil Twilight 7:21 AM EST 6:04 PM EST
Nautical Twilight 6:48 AM EST 6:37 PM EST
Astronomical Twilight 6:15 AM EST 7:10 PM EST
Moon 8:15 PM EST (1/18) 8:50 AM EST (1/18)
Length of Visible Light 10h 42m
Length of Day
9h 43m
Waning Gibbous, 94% of the Moon is Illuminated
Jan 18
Waning Gibbous
Jan 24
Last Quarter
Jan 30
New
Feb 6
First Quarter
Feb 14
Full

Hourly Weather History & Observations

Time (EST) Temp. Windchill Dew Point Humidity Pressure Visibility Wind Dir Wind Speed Gust Speed Precip Events Conditions
12:53 AM 10.0 °F -2.9 °F 1.9 °F 70% 30.05 in 10.0 mi SW 9.2 mph - N/A   Clear
1:53 AM 9.0 °F -5.1 °F 1.9 °F 73% 30.04 in 10.0 mi SW 10.4 mph - N/A   Clear
2:53 AM 9.0 °F -3.2 °F 3.9 °F 80% 30.04 in 10.0 mi SW 8.1 mph - N/A   Clear
3:53 AM 10.0 °F 0.4 °F 5.0 °F 80% 30.04 in 10.0 mi SW 5.8 mph - N/A   Mostly Cloudy
4:53 AM 12.0 °F -1.3 °F 6.1 °F 77% 30.04 in 10.0 mi WSW 10.4 mph - N/A   Overcast
5:53 AM 12.9 °F -0.2 °F 7.0 °F 77% 30.04 in 10.0 mi WSW 10.4 mph - N/A   Overcast
6:53 AM 12.9 °F 0.7 °F 7.0 °F 77% 30.03 in 10.0 mi SW 9.2 mph - N/A   Overcast
7:53 AM 12.9 °F 1.6 °F 7.0 °F 77% 30.03 in 10.0 mi SW 8.1 mph - N/A   Overcast
8:53 AM 14.0 °F -0.8 °F 8.1 °F 77% 30.05 in 10.0 mi SW 13.8 mph - N/A   Overcast
9:43 AM 15.1 °F 1.1 °F 9.0 °F 77% 30.01 in 7.0 mi SW 12.7 mph - 0.00 in Snow Light Snow
9:53 AM 15.1 °F 1.8 °F 9.0 °F 77% 30.07 in 5.0 mi SW 11.5 mph - 0.00 in Snow Light Snow
10:34 AM 16.0 °F 3.6 °F 10.0 °F 77% 30.02 in 10.0 mi SW 10.4 mph - 0.00 in   Overcast
10:53 AM 17.1 °F 2.5 °F 9.0 °F 71% 30.06 in 10.0 mi SW 15.0 mph - 0.00 in   Overcast
11:53 AM 18.0 °F 3.6 °F 10.0 °F 71% 30.04 in 10.0 mi SSW 15.0 mph 19.6 mph 0.00 in   Overcast
12:53 PM 21.0 °F 9.3 °F 10.9 °F 65% 30.00 in 10.0 mi SW 11.5 mph - N/A   Overcast
1:53 PM 19.9 °F 8.6 °F 12.9 °F 74% 29.97 in 8.0 mi SSW 10.4 mph - 0.00 in   Overcast
2:53 PM 21.0 °F 9.9 °F 12.9 °F 71% 29.95 in 10.0 mi South 10.4 mph - 0.00 in   Overcast
3:53 PM 21.0 °F 8.6 °F 14.0 °F 74% 29.94 in 10.0 mi South 12.7 mph - N/A   Mostly Cloudy
4:53 PM 21.9 °F 11.0 °F 14.0 °F 72% 29.94 in 10.0 mi South 10.4 mph - N/A   Overcast
5:49 PM 21.2 °F 8.9 °F 14.0 °F 74% 29.88 in 10.0 mi SSE 12.7 mph - N/A   Overcast
5:53 PM 21.9 °F 11.0 °F 14.0 °F 72% 29.93 in 9.0 mi SSE 10.4 mph - N/A   Overcast
6:19 PM 21.0 °F 9.9 °F 16.0 °F 81% 29.87 in 3.0 mi SSE 10.4 mph - 0.00 in Snow Light Snow
6:53 PM 21.0 °F 10.6 °F 17.1 °F 85% 29.92 in 3.0 mi SE 9.2 mph - 0.00 in Snow Light Snow
7:00 PM 21.0 °F 9.9 °F 17.1 °F 85% 29.87 in 1.5 mi SE 10.4 mph - 0.00 in Snow Light Snow
7:38 PM 21.0 °F 9.9 °F 18.0 °F 88% 29.87 in 0.8 mi SE 10.4 mph - 0.01 in Snow Light Snow
7:53 PM 21.0 °F 9.3 °F 18.0 °F 88% 29.91 in 1.0 mi SSE 11.5 mph - 0.01 in Snow Light Snow
8:25 PM 21.0 °F 11.4 °F 18.0 °F 88% 29.85 in 1.5 mi SE 8.1 mph - 0.01 in Snow Light Snow
8:53 PM 21.0 °F 10.6 °F 18.0 °F 88% 29.89 in 1.2 mi SE 9.2 mph - 0.01 in Snow Light Snow
9:10 PM 21.0 °F 10.6 °F 18.0 °F 88% 29.84 in 1.8 mi SE 9.2 mph - 0.00 in Snow Light Snow
9:15 PM 21.0 °F 12.4 °F 18.0 °F 88% 29.84 in 2.0 mi SE 6.9 mph - 0.00 in Snow Light Snow
9:26 PM 21.0 °F 11.4 °F 18.0 °F 88% 29.84 in 4.0 mi SE 8.1 mph - 0.00 in Snow Light Snow
9:53 PM 21.0 °F 10.6 °F 18.0 °F 88% 29.87 in 2.0 mi SE 9.2 mph - 0.00 in Snow Light Snow
9:59 PM 21.0 °F 11.4 °F 18.0 °F 88% 29.82 in 1.2 mi SE 8.1 mph - 0.00 in Snow Light Snow
10:22 PM 21.0 °F 10.6 °F 18.0 °F 88% 29.81 in 2.0 mi SE 9.2 mph - 0.00 in Snow Light Snow
10:39 PM 21.0 °F 10.6 °F 18.0 °F 88% 29.80 in 3.0 mi SE 9.2 mph - 0.00 in Snow Light Snow
10:53 PM 21.0 °F 11.4 °F 18.0 °F 88% 29.84 in 3.0 mi ESE 8.1 mph - 0.00 in Snow Light Snow
11:10 PM 21.0 °F 12.4 °F 18.0 °F 88% 29.79 in 4.0 mi SE 6.9 mph - 0.00 in Snow Light Snow
11:49 PM 21.2 °F 11.7 °F 17.6 °F 86% 29.77 in 8.0 mi SE 8.1 mph - 0.00 in   Mostly Cloudy
11:53 PM 21.0 °F 11.4 °F 18.0 °F 88% 29.81 in 9.0 mi SE 8.1 mph - 0.00 in   Mostly Cloudy